Flag for U.S.A. Weather past 2 weeks in Salt Lake City, Utah, U.S.A.

Now
67 °F

Passing clouds.


Feels Like: 67 °F
Forecast: 65 / 92 °F
Wind: 9 mph from Northeast

Location: Salt Lake City International Airport

Current Time: Jul 25, 2014 at 4:08:35 AM

Latest Report: Jul 25, 2014 at 2:53 AM


Visibility: 10 mi

Pressure: 29.83 "Hg

Humidity: 42%

Dew point: 43 °F

Location of Salt Lake CityLocation

Historic Weather in Salt Lake City — Graph

°F

Salt Lake City temperature yesterday

Maximum temperature yesterday: 93 °F (at 4:53 PM)
Minimum temperature yesterday: 74 °F (at 10:53 PM)
Average temperature yesterday: 86 °F

Past Weeks' High & Low Weather Summary

 TemperatureHumidityPressure
High102 °F (Jul 14, 2:53 PM)76% (Jul 10, 5:53 AM)30.22 "Hg (Jul 10, 5:53 AM)
Low64 °F (Jul 22, 5:53 AM)7% (Jul 21, 4:53 PM)29.68 "Hg (Jul 15, 6:53 PM)
Average83 °F30%29.85 "Hg
* Reported Jul 10 2:53 AM — Jul 25 2:53 AM, Salt Lake City, Weather by CustomWeather, © 2014

Note: Actual official high and low records may vary slightly from our data, if they occured in-between our weather recording intervals... More about our weather records

Advertising

Salt Lake City weather history for previous 24 hours

 ConditionsComfort  
Time TempWeatherWind HumidityBarometerVisibility
2:53 AM
Jul 25
67 °FPassing clouds.9 mph42%29.83 "Hg10 mi
1:53 AM69 °FPassing clouds.3 mph42%29.81 "Hg10 mi
12:53 AM71 °FPassing clouds.8 mph39%29.80 "Hg10 mi
11:53 PM
Jul 24
74 °FPassing clouds.7 mph40%29.79 "Hg10 mi
10:53 PM74 °FPartly cloudy.8 mph60%29.77 "Hg10 mi
9:53 PM80 °FPassing clouds.3 mph31%29.76 "Hg10 mi
8:53 PM87 °FPartly sunny.8 mph14%29.74 "Hg10 mi
7:53 PM90 °FPartly sunny.8 mph13%29.74 "Hg10 mi
6:53 PM92 °FPartly sunny.14 mph10%29.74 "Hg10 mi
5:53 PM92 °FPartly sunny.13 mph11%29.76 "Hg10 mi
4:53 PM93 °FScattered clouds.12 mph12%29.77 "Hg10 mi
3:53 PM92 °FScattered clouds.15 mph14%29.79 "Hg10 mi
2:53 PM91 °FScattered clouds.13 mph17%29.81 "Hg10 mi
1:53 PM91 °FScattered clouds.13 mph17%29.82 "Hg10 mi
12:53 PM90 °FScattered clouds.15 mph18%29.83 "Hg10 mi
11:53 AM88 °FScattered clouds.14 mph22%29.84 "Hg10 mi
10:53 AM87 °FPartly sunny.9 mph23%29.83 "Hg10 mi
9:53 AM83 °FPartly sunny.13 mph26%29.85 "Hg10 mi
8:53 AM82 °FScattered clouds.9 mph21%29.84 "Hg10 mi
7:53 AM80 °FBroken clouds.5 mph27%29.82 "Hg10 mi
6:53 AM81 °FPassing clouds.12 mph34%29.80 "Hg10 mi
5:53 AM80 °FPassing clouds.5 mph28%29.79 "Hg10 mi
4:53 AM86 °FPassing clouds.15 mph22%29.77 "Hg10 mi
Weather by CustomWeather, © 2014

See weather overviewHow to use our weather pages